• Processing (Info)

  • MPEC 1998-S39 : 1998 SE35

    The following Minor Planet Electronic Circular may be linked-to from your own Web pages, but must not otherwise be redistributed electronically.

    A form allowing access to any MPEC is at the bottom of this page.


    Read MPEC 1998-S38 Read MPEC 1998-S40


    M.P.E.C. 1998-S39                                Issued 1998 Sept. 28, 19:36 UT
    
         The Minor Planet Electronic Circulars contain information on unusual
             minor planets and routine data on comets.  They are published
       on behalf of Commission 20 of the International Astronomical Union by the
              Minor Planet Center, Smithsonian Astrophysical Observatory,
                              Cambridge, MA 02138, U.S.A.
    
                 BMARSDEN@CFA.HARVARD.EDU or GWILLIAMS@CFA.HARVARD.EDU
                       URL http://cfa-www.harvard.edu/iau/mpc.html
    
                                       1998 SE35
    
    Observations:
         J98S35E* C1998 09 24.26671 00 48 20.13 +44 46 40.0          18.8        704
         J98S35E  C1998 09 24.28920 00 48 20.82 +44 48 08.6          19.0        704
         J98S35E  C1998 09 24.31139 00 48 21.25 +44 49 34.2          19.0        704
         J98S35E  C1998 09 24.33358 00 48 22.01 +44 51 03.1          18.8        704
         J98S35E  C1998 09 24.35572 00 48 22.63 +44 52 29.2          18.5        704
         J98S35E  C1998 09 24.93703 00 48 47.57 +45 29 55.3          18.0 V      046
         J98S35E  C1998 09 24.93804 00 48 47.65 +45 29 59.2                      046
         J98S35E  C1998 09 24.93925 00 48 47.61 +45 30 03.8                      046
         J98S35E  C1998 09 24.94693 00 48 47.77 +45 30 34.0                      118
         J98S35E  C1998 09 24.94899 00 48 47.85 +45 30 42.0                      118
         J98S35E  C1998 09 24.95373 00 48 48.01 +45 31 00.6          17.5 R      118
         J98S35E  C1998 09 25.07374 00 48 51.70 +45 38 39.4                      557
         J98S35E  C1998 09 25.07525 00 48 51.74 +45 38 45.1                      557
         J98S35E  C1998 09 25.07677 00 48 51.77 +45 38 51.2          18.4 V      557
         J98S35E WC1998 09 25.91190 00 49 27.94 +46 31 49.5                      557
         J98S35E WC1998 09 25.91492 00 49 28.07 +46 32 01.3                      557
         J98S35E WC1998 09 25.91795 00 49 28.13 +46 32 14.5                      557
         J98S35E  C1998 09 25.92280 00 49 28.34 +46 32 32.7          17.9 V      046
         J98S35E  C1998 09 25.92416 00 49 28.36 +46 32 37.7                      046
         J98S35E  C1998 09 25.92531 00 49 28.39 +46 32 41.7                      046
         J98S35E  C1998 09 25.92731 00 49 28.47 +46 32 50.3                      046
         J98S35E  C1998 09 26.20728 00 49 40.76 +46 50 25.3          18.7        704
         J98S35E  C1998 09 26.22399 00 49 41.29 +46 51 27.8          19.3        704
         J98S35E  C1998 09 26.24064 00 49 41.81 +46 52 32.9          18.6        704
         J98S35E  C1998 09 26.24920 00 49 41.45 +46 53 03.0                      734
         J98S35E  C1998 09 26.25731 00 49 41.81 +46 53 31.9                      734
         J98S35E  C1998 09 26.25732 00 49 42.28 +46 53 33.3          18.9        704
         J98S35E  C1998 09 26.27398 00 49 42.58 +46 54 38.7          18.9        704
         J98S35E  C1998 09 26.28382 00 49 42.38 +46 55 09.3                      734
         J98S35E  C1998 09 26.29061 00 49 43.21 +46 55 39.9          18.3        704
         J98S35E  C1998 09 26.30729 00 49 43.65 +46 56 42.8          19.0        704
         J98S35E  C1998 09 26.32393 00 49 44.01 +46 57 43.8          19.2        704
         J98S35E  C1998 09 26.34054 00 49 44.48 +46 58 45.2          19.1        704
         J98S35E  C1998 09 26.35717 00 49 44.88 +46 59 48.6          18.8        704
         J98S35E  C1998 09 27.78427 00 50 45.83 +48 26 39.9          18.6 V      046
         J98S35E  C1998 09 27.78972 00 50 46.02 +48 26 59.9                      046
         J98S35E  C1998 09 27.79212 00 50 46.07 +48 27 08.8                      046
         J98S35E  C1998 09 27.79337 00 50 46.09 +48 27 14.5                      046
         J98S35E  C1998 09 27.79456 00 50 46.14 +48 27 18.1                      046
         J98S35E  C1998 09 27.81398 00 50 46.77 +48 28 28.8                      557
         J98S35E  C1998 09 27.81854 00 50 46.95 +48 28 45.8                      557
         J98S35E  C1998 09 27.82006 00 50 47.00 +48 28 51.5          18.4 V      557
         J98S35E  C1998 09 27.98062 00 50 51.90 +48 38 33.3                      557
         J98S35E  C1998 09 27.98226 00 50 51.94 +48 38 39.3                      557
         J98S35E  C1998 09 27.99044 00 50 52.12 +48 39 08.2                      557
    
    Observer details:
    046 Klet.  Observers J. Ticha, M. Tichy, Z. Moravec.  Measurer M. Tichy.
        0.57-m f/5.2 reflector + CCD.
    118 Modra.  Observers L. Kornos, P. Koleny.  0.6-m f/5.5 reflector + CCD.
    557 Ondrejov.  Observers P. Pravec, L. Sarounova.  0.65-m f/3.6 reflector
        + CCD.
    704 Lincoln Laboratory ETS, New Mexico.  Observers M. Blythe, F. Shelly,
        M. Bezpalko.  Measurers J. Stuart, H. Viggh, R. Sayer.  1.0-m f/2.15
        reflector + CCD.
    734 Farpoint Observatory.  Observer G. Hug.  0.30-m Schmidt-Cassegrain + CCD.
    
    Orbital elements:
    1998 SE35
    Epoch 1998 Sept. 24.0 TT = JDT 2451080.5                Williams
    M 358.15020              (2000.0)            P               Q
    n   0.16536514     Peri.   42.88530     +0.94201947     -0.31622362
    a   3.2873056      Node   334.88190     +0.18825370     +0.77497296
    e   0.6270977      Incl.   15.33472     +0.27777665     +0.54719241
    P   5.96           H   19.0           G   0.15
    From 45 observations 1998 Sept. 24-27.
    
    Ephemeris:
    1998 SE35                a,e,i = 3.29, 0.63, 15                  q = 1.2258
    Date    TT    R. A. (2000) Decl.     Delta      r     Elong.  Phase     V
    1998 09 24    00 48.14   +44 29.1    0.301    1.234   134.7    35.3    18.3
    1998 09 29    00 51.56   +49 38.5    0.306    1.228   132.2    37.2    18.4
    1998 10 04    00 55.04   +54 07.5    0.314    1.226   130.0    38.7    18.5
    1998 10 09    00 58.74   +57 53.4    0.325    1.227   128.2    39.8    18.6
    1998 10 14    01 02.82   +60 55.9    0.338    1.231   127.0    40.3    18.7
    1998 10 19    01 07.50   +63 16.7    0.352    1.238   126.3    40.4    18.8
    1998 10 24    01 13.05   +64 58.5    0.367    1.247   126.2    40.1    18.9
    1998 10 29    01 19.65   +66 04.7    0.384    1.260   126.5    39.3    19.0
    1998 11 03    01 27.36   +66 39.0    0.401    1.276   127.2    38.3    19.1
    1998 11 08    01 36.08   +66 44.6    0.420    1.294   128.2    37.0    19.2
    1998 11 13    01 45.59   +66 24.5    0.440    1.314   129.4    35.6    19.3
    1998 11 18    01 55.70   +65 41.6    0.461    1.337   130.8    34.1    19.4
    1998 11 23    02 06.22   +64 39.2    0.485    1.361   132.2    32.5    19.5
    1998 11 28    02 16.98   +63 20.7    0.510    1.388   133.5    31.1    19.6
    1998 12 03    02 27.81   +61 49.7    0.538    1.416   134.6    29.7    19.7
    1998 12 08    02 38.56   +60 09.5    0.568    1.446   135.3    28.6    19.8
    1998 12 13    02 49.19   +58 23.1    0.602    1.477   135.7    27.7    20.0
    1998 12 18    02 59.67   +56 33.2    0.639    1.509   135.7    27.1    20.1
    1998 12 23    03 10.02   +54 42.7    0.680    1.542   135.1    26.7    20.3
    1998 12 28    03 20.26   +52 53.8    0.724    1.576   134.2    26.6    20.5
    1999 01 02    03 30.38   +51 08.2    0.773    1.611   132.8    26.6    20.7
    1999 01 07    03 40.39   +49 27.0    0.825    1.647   131.0    26.8    20.9
    1999 01 12    03 50.28   +47 51.1    0.881    1.683   128.9    27.1    21.1
    1999 01 17    04 00.10   +46 20.8    0.942    1.720   126.5    27.4    21.3
    1999 01 22    04 09.86   +44 56.5    1.006    1.757   124.0    27.7    21.5
    1999 01 27    04 19.58   +43 38.0    1.073    1.794   121.3    28.0    21.7
    1999 02 01    04 29.23   +42 25.1    1.144    1.832   118.5    28.2    21.9
    
    Gareth V. Williams           (C) Copyright 1998 MPC           M.P.E.C. 1998-S39
    

    Read MPEC 1998-S38 Read MPEC 1998-S40


    MPEC number:

    Enter an MPEC number in one of the following forms:

    • 1997-B01 (the full form)
    • J97B01 (the packed version of the full form)
    • B01 (the abbreviated form)